Location: Grange Rosano
(44.4500°N, 6.9667°E)
Time: 09:39:30
(UTC+00:00)

ADEOS II - Pass Details

Date: 02 October 2022
Orbit: 799 x 800 km, 98.6° (Epoch: 01 December)

Event Time Altitude Azimuth Distance (km) Brightness Sun altitude
Rises 02:18:57 0° 8° (N) 3,319 5.8 -33.6°
Reaches altitude 10° 02:21:21 10° 3° (N) 2,385 4.9 -33.2°
Enters shadow 02:23:22 23° 352° (N) 1,666 3.9 -32.9°
